Showing default

COSMOS 2337, 24725

Orbit data source: Space-Track

COSMOS 2337, 24725 is a payload satellite owned by VKS (CIS) in LEO that was launched on Fri, 14 Feb 1997 UTC via a TSIKLON-3 launch vehicle from the Plesetsk Missile And Space Complex (PKMTR). Payload-class satellites include a variety of spacecraft equipped with specific instruments for various scientific and technological missions. These include communications satellites like Starlink; space stations such as the ISS; scientific satellites like the Hubble; Earth observation satellites from companies like Planet Labs, Umbra, and HawkEye 360; GPS; miniature CubeSats for education and research; and military/defense satellites.

Loading next visibility...
Identifier
24725, 1997-006A
Orbit
LEO
Country
Flag of CISCIS
Related business
Manufacturer
NPO PM
Mission
Non-operational Defense Communications
Bus & Motor
STRELA-3, Unknown motor
Mass
225 kg wet, 225 kg dry
Launch date (UTC)
1997-02-14 (29 years ago)
Launch vehicle
TSIKLON-3
Launch site
Plesetsk Missile And Space Complex (PKMTR)
Object type
Payload
Rocket body
Debris
Shape & HBR
Cyl + 1 Ant, 3.5 m
Radar Cross Section
1.583 m², Medium (>0.1 m² and < 1m²)

Expand to show TLE details & history
Last TLE update: 14 hours ago

TLE from 14 hours ago
0 COSMOS 2337
1 24725U 97006A   26127.96430320  .00000018  00000-0  44032-4 0  9993
2 24725  82.6065 305.6625 0008656 209.0366 151.0244 12.60724014344787
Epoch: 2026-05-07T23:08Z
TLE epoch observation values (Epoch: 2026-05-07T23:08:35.796Z)
Latitude
-0°
Longitude
92.71046°
Altitude
1,428.593 km
Speed
7.144 km/s
True Right ascension
20h 22m 38s
True Declination
0° 00' 00"
Sunlit
Object was in daylight at epoch
Visualization orbit readout
Latitude
Unknown
Longitude
Unknown
Altitude
Unknown
Speed
Unknown
Apparent Right ascension
Unknown
Apparent Declination
Unknown
Sunlit
N/A
Visualization observer readout
Local Sidereal Time
20:52:45
Azimuth
Unknown
Elevation
Unknown
Doppler factor
Unknown
Orbital elements
Apogee altitude
1,424.027 km
Perigee altitude
1,410.532 km
Semi-major axis
7,795.416 km
Eccentricity
0.00087
Inclination
82.6065°
RAAN
305.6625°
Arg. of periapsis
209.0366°
True anomaly
151.07241°
Mean anomaly
151.0244°
Eccentric anomaly
151.04841°
Mean motion
3.15344 °/min
Orbital period
114.16 mins
BSTAR
0.000044032
Loading maneuver chart data...
Computing Atmospheric mass density...
Loading historical data...
Loading historical data...
Loading historical data...
Loading historical data...
Loading historical data...
Loading historical data...
Loading historical data...

Documentation

Showing up to 5 results
|